Погода в Абышеве

Россия / Кемеровская область (Кузбасс)     55°03′49″N   84°59′42″E
темп.,
°C
ветер,
м/с
пор.,
м/с
влажн.,
%
обл.,
%
осадки,
мм/ч
давл.,
гПа
погр.,
м
25 февраля, чт
чт2501:00−7зюз111982100 3.1 1010845
04:00−17зюз5138142 0.0 1014361
07:00−22ююз348923 0.0 101746
10:00−21юз512841 0.0 1019501
13:00−18юз6107715 0.0 10201179
16:00−18юз71280100 0.1 10201519
19:00−20юз41390100 0.1 1022746
22:00−20юз41191100 0.0 1022533
26 февраля, пт
пт2601:00−21юз31197100 0.1 1022519
04:00−22юз51290100 0.1 1023774
07:00−22юз61190100 0.1 1026986
10:00−23юз81385100 0.0 1028991
13:00−22юз81385100 0.1 10301106
16:00−20зюз81387100 0.1 10321293
19:00−22зюз51191100 0.1 1034805
22:00−24зюз41193100 0.1 1036641
27 февраля, сб
сб2701:00−25юз31093100 0.1 1036512
04:00−25юз3994100 0.0 1037561
07:00−25юз3996100 0.1 1037452
10:00−24юз4893100 0.1 1038586
13:00−22зюз4791100 0.3 1038698
16:00−21зюз4789100 0.1 1038725
19:00−22зюз3494100 0.1 103882
22:00−26зюз239488 0.0 103919
28 февраля, вс
вс2801:00−27юз229487 0.0 104019
04:00−29юз229389 0.0 104019
07:00−30ю129369 0.0 104119
10:00−27юв22920 0.0 104142
13:00−20вюв23890 0.0 1039232
16:00−17вюв459340 0.0 1037225
19:00−18юв349559 0.0 103567
22:00−16юв3692100 0.0 1032107
1 марта, пн
пн101:00−13юв51090100 0.1 1029375
04:00−10юв61194100 0.3 1025509
07:00−8ю51292100 1.4 1021791
10:00−7ю61293100 0.8 1018864
13:00−5ююз61189100 1.5 1016884
16:00−4юз71290100 1.3 1014891
19:00−3юз81688100 1.4 1013831
22:00−2юз8169484 0.1 1013632